Regional Weather Roundup
Issued by NWS

Home | Current Version | Previous Version | Graphics & Text | Print | Product List | Glossary Off
Versions: 1 2 3 4 5 6 7 8 9 10 11 12 13 14 15 16 17 18 19 20 21 22 23 24 25 26 27 28 29 30 31 32 33 34 35 36 37 38 39 40 41 42 43 44 45 46 47 48 49 50

407
ASUS43 KMPX 292310
RWRMN
WEATHER ROUNDUP FOR MINNESOTA
NATIONAL WEATHER SERVICE TWIN CITIES/CHANHASSEN MN
600 PM CDT FRI APR 29 2016


NOTE: "FAIR" INDICATES FEW OR NO CLOUDS BELOW 12,000 FEET WITH NO
SIGNIFICANT WEATHER AND/OR OBSTRUCTIONS TO VISIBILITY. N/A MEANS
CURRENT SKY AND/OR WEATHER CONDITIONS ARE NOT AVAILABLE.

MNZ060>063-068>070-300000-
   Twin Cities Metro

CITY           SKY/WX    TMP DP  RH WIND       PRES   REMARKS
TWIN CITIES    MOSUNNY   60  34  37 VRB3      30.10F
ST PAUL        SUNNY     59  35  40 E5        30.11S
CRYSTAL        SUNNY     60  33  36 VRB7      30.10S
BLAINE         MOSUNNY   61  34  36 E8        30.11S
EDEN PRAIRIE   SUNNY     59  33  37 SE6       30.10S
SOUTH ST PAUL  SUNNY     59  33  37 CALM      30.10F
LAKE ELMO      FAIR      59  36  41 NE6       30.11F
$$
MNZ001>005-007-008-013>017-022>024-027-028-300000-
   Northwest Minnesota

CITY           SKY/WX    TMP DP  RH WIND       PRES   REMARKS
BEMIDJI        MOSUNNY   60  32  35 E10       30.12S
HALLOCK        SUNNY     63  23  22 NE13      30.16R
ROSEAU         SUNNY     57  36  44 E17       30.18S
WARROAD        SUNNY     55  36  47 NE7       30.20S
THIEF RVR FALL SUNNY     61  30  31 NE10      30.16R
CROOKSTON      SUNNY     63  30  29 NE8G16    30.14S
FOSSTON        SUNNY     63  34  34 NE10G16   30.14S
DETROIT LAKES  MOSUNNY   61  32  33 CALM      30.12R
MOORHEAD       PTSUNNY   63  30  29 NE7       30.10S
PARK RAPIDS    SUNNY     61  29  29 MISG      30.11R
MAHNOMEN       FAIR      61  32  33 E8G17     30.11R
$$
MNZ006-009>011-018-025>026-300000-
   North Central Minnesota

CITY           SKY/WX    TMP DP  RH WIND       PRES   REMARKS
BAUDETTE       SUNNY     57  31  37 N15       30.16S
FLAG ISLAND    SUNNY     54  30  40 N15       30.18S
INTL FALLS     SUNNY     57  31  37 NE10      30.18R
WASKISH        SUNNY     59  34  38 NE14      30.15S
BIG FORK       SUNNY     59  30  33 NE8       30.14S
LONGVILLE      SUNNY     61  28  29 E5        30.12R
GRAND RAPIDS   SUNNY     57  28  33 NE9       30.14R
CRANE LAKE     SUNNY     54  30  40 NE6       30.21R
ORR            SUNNY     55  27  33 E5        30.16R
COOK           SUNNY     54  30  40 E10       30.17S
WALKER         FAIR      58  32  37 SE6       30.12S
$$
MNZ012-019>021-037-300000-
   Northeast Minnesota

CITY           SKY/WX    TMP DP  RH WIND       PRES   REMARKS
DULUTH         MOSUNNY   49  28  44 E16       30.16R
ELY            CLOUDY    52  28  40 N5        30.19S
HIBBING        SUNNY     55  30  38 NE10      30.14S
EVELETH        SUNNY     54  30  40 NE9G16    30.16S
DULUTH HARBOR  SUNNY     41  36  81 NE7       30.20R
TWO HARBORS    SUNNY     48  36  61 E13       30.16S
SILVER BAY     SUNNY     46  30  53 NE9       30.17S
GRAND MARAIS     N/A     42  31  64 CALM      30.21R
G MARAIS ARPRT CLOUDY    45  27  49 S5        30.20R
$$
MNZ029>031-032-039>041-046>048-054>057-064-300000-
   West Central Minnesota

CITY           SKY/WX    TMP DP  RH WIND       PRES   REMARKS
FERGUS FALLS   MOSUNNY   61  36  39 SE7       30.08R
WHEATON        CLOUDY    61  39  44 SE8       30.13S
MORRIS         MOSUNNY   59  39  47 CALM      30.11S
ALEXANDRIA     PTSUNNY   57  33  40 SE8       30.12R
ELBOW LAKE     CLOUDY    60  37  42 SW6       30.12R
WADENA         SUNNY     61  32  33 E6        30.10R
GLENWOOD       MOSUNNY   57  36  44 E3        30.12S
APPLETON       CLOUDY    57  37  47 CALM      30.11F
BENSON         CLOUDY    57  34  41 SE8       30.11F
ORTONVILLE     CLOUDY    55  37  50 E5        30.12S
MADISON        CLOUDY    55  39  54 E5        30.11F
WILLMAR        CLOUDY    57  39  51 NE5       30.13S
$$
MNZ033>034-036-042>043-049>051-058-059-300000-
   Central Minnesota

CITY           SKY/WX    TMP DP  RH WIND       PRES   REMARKS
ST CLOUD       SUNNY     59  32  36 VRB6      30.11S
SAUK CENTRE    FAIR      58  33  39 E9        30.12S
PAYNESVILLE    SUNNY     58  32  38 SE3       30.12R
AITKIN         SUNNY     63  23  22 CALM      30.11R
PINE RIVER     MOSUNNY   61  36  39 SE12      30.14R
BRAINERD       SUNNY     59  29  31 NE7       30.12R
STAPLES        SUNNY     61  28  29 E5        30.11R
LONG PRAIRIE   FAIR      57  32  38 E7        30.12S
LITTLE FALLS   SUNNY     59  30  33 E3        30.13R
LITCHFIELD     MOSUNNY   57  36  44 E8        30.12S
BUFFALO        SUNNY     58  33  38 SE5       30.12S
MAPLE LAKE     SUNNY     59  37  43 E5        30.13R
HUTCHINSON     PTSUNNY   55  41  58 E7        30.12F
$$
MNZ037-044-045-052-053-300000-
   East Central Minnesota

CITY           SKY/WX    TMP DP  RH WIND       PRES   REMARKS
PRINCETON      SUNNY     61  30  31 E5        30.11S
MORA           SUNNY     57  32  38 E3        30.14R
CAMBRIDGE      SUNNY     63  39  42 CALM      30.09S
RUSH CITY      SUNNY     60  32  34 NE6       30.11S
MOOSE LAKE     SUNNY     55  32  41 NE9       30.13R
HINCKLEY       FAIR      59  32  36 NE8       30.13R
CLOQUET        SUNNY     50  27  40 E12G17    30.17R
MCGREGOR       MOSUNNY   59  32  36 E9        30.13R
$$
MNZ071>073-080-081-089-090-097-098-300000-
   Southwest Minnesota

CITY           SKY/WX    TMP DP  RH WIND       PRES   REMARKS
MONTEVIDEO     CLOUDY    55  39  54 SE7       30.12F
GRANITE FALLS  CLOUDY    57  40  53 E7        30.11F
CANBY          CLOUDY    56  44  63 CALM      30.12S
MARSHALL       CLOUDY    53  39  59 E10       30.10F
REDWOOD FALLS  CLOUDY    54  38  54 E5        30.10F
OLIVIA         CLOUDY    54  37  54 E6        30.10F
PIPESTONE      CLOUDY    52  39  62 E7        30.08S
WINDOM         CLOUDY    52  39  62 E5        30.09S
WORTHINGTON    CLOUDY    50  39  66 E9        30.09R
JACKSON        CLOUDY    52  37  58 E7        30.10S
TRACY          CLOUDY    53  42  65 E9        30.10F
SLAYTON        CLOUDY    51  40  66 NE6       30.09F
$$
MNZ065>067-074>077-082>085-091>093-300000-
   South Central Minnesota

CITY           SKY/WX    TMP DP  RH WIND       PRES   REMARKS
MANKATO        CLOUDY    54  37  54 E9        30.10F
NEW ULM        MOSUNNY   55  37  50 E6        30.09F
ST JAMES       CLOUDY    48  36  61 E7        30.11S
FAIRMONT       CLOUDY    52  36  54 E9        30.10S
GLENCOE        MOSUNNY   58  38  47 E8        30.10F
FARIBAULT      PTSUNNY   55  39  54 E7        30.11F
OWATONNA       CLOUDY    54  39  58 E7        30.11S
WASECA         CLOUDY    52  39  62 E8        30.11F
ALBERT LEA     CLOUDY    52  39  62 NE12      30.11S
$$
MNZ078>079-086>088-094>096-300000-
   Southeast Minnesota

CITY           SKY/WX    TMP DP  RH WIND       PRES   REMARKS
ROCHESTER      CLOUDY    50  40  68 E10       30.12F
RED WING       SUNNY     57  37  47 S5        30.10F
STANTON        PTSUNNY   56  40  53 E5        30.10F
DODGE CENTER   CLOUDY    52  39  62 E10       30.11F
WINONA         CLOUDY    52  39  62 CALM      30.13F
AUSTIN         CLOUDY    48  39  71 E8        30.11R
PRESTON        CLOUDY    49  37  62 E6        30.12R
$$
ABBREVIATIONS USED IN REMARKS
   TC - TEMPERATURES IN CELSIUS
  WCI - WIND CHILL INDEX
   HX - HEAT INDEX
  VSB - VISIBILITY
$$




USA.gov is the U.S. government's official web portal to all federal, state and local government web resources and services.